FW6471 Weather Reports


Display with metric or nautical units.
time (UTC)temp
F
wind
direction
speed
MPH
gust
MPH
rain 1hr
in
rain 24hr
in
rain mn
in
humidity
%
barometer
mb
20260831052603 75 320 0.0 0.0 0.00 0.02 0.00 93 1018.4
20260831052104 75 320 0.0 0.0 0.00 0.02 0.00 93 1018.3
20260831051605 75 320 0.0 0.0 0.00 0.02 0.00 94 1018.4
20260831051104 75 320 0.0 0.0 0.00 0.02 0.00 94 1018.4
20260831050110 75 320 0.0 0.0 0.00 0.02 0.00 93 1018.3
20260831045106 75 320 0.0 0.0 0.00 0.02 0.00 94 1018.3
20260831044606 75 320 0.0 0.0 0.00 0.02 0.00 94 1018.4
20260831044106 75 320 0.0 0.0 0.00 0.02 0.00 93 1018.4
20260831043606 75 320 0.0 0.0 0.00 0.02 0.00 93 1018.5
20260831042606 75 320 0.0 0.0 0.00 0.02 0.00 93 1018.6
20260831042106 75 320 0.0 0.0 0.00 0.02 0.00 93 1018.5
20260831041605 75 320 0.0 0.0 0.00 0.02 0.00 93 1018.5
20260831041106 75 320 0.0 0.0 0.00 0.02 0.00 93 1018.5
20260831040606 75 320 0.0 0.0 0.00 0.02 0.00 93 1018.5
20260831040110 75 320 0.0 0.0 0.00 0.02 0.00 93 1018.6
20260831035605 75 320 0.0 0.0 0.00 0.02 0.02 93 1018.6
20260831035106 75 320 0.0 0.0 0.00 0.02 0.02 93 1018.7
20260831034605 75 320 0.0 0.0 0.00 0.02 0.02 93 1018.7
20260831034105 75 320 0.0 0.0 0.00 0.02 0.02 93 1018.7
20260831033105 75 320 0.0 0.0 0.00 0.02 0.02 93 1018.8
20260831032606 75 320 0.0 0.0 0.00 0.02 0.02 93 1018.8
20260831032105 75 320 0.0 0.0 0.00 0.02 0.02 93 1018.7
20260831031106 75 320 0.0 0.0 0.00 0.02 0.02 93 1018.7
20260831030605 75 320 0.0 0.0 0.00 0.02 0.02 93 1018.8
20260831030110 75 320 0.0 0.0 0.00 0.02 0.02 93 1018.8
20260831025105 75 320 0.0 0.0 0.00 0.02 0.02 93 1018.7
20260831024606 75 320 0.0 0.0 0.00 0.02 0.02 93 1018.8
20260831024106 75 320 0.0 0.0 0.00 0.02 0.02 93 1018.8
20260831023605 76 320 0.0 0.0 0.00 0.02 0.02 92 1018.8
20260831023106 76 320 0.0 0.0 0.00 0.02 0.02 92 1018.7
20260831022605 76 320 0.0 0.0 0.00 0.02 0.02 92 1018.9
20260831022106 76 320 0.0 0.0 0.00 0.02 0.02 92 1018.9
20260831021606 76 320 0.0 0.0 0.00 0.02 0.02 92 1018.9
20260831020606 76 320 0.0 0.0 0.00 0.02 0.02 92 1019.0
20260831020109 76 320 0.0 0.0 0.00 0.02 0.02 92 1019.1
20260831015606 76 320 0.0 0.0 0.00 0.02 0.02 92 1019.1
20260831015106 76 320 0.0 0.0 0.00 0.02 0.02 92 1019.1
20260831014605 76 320 0.0 0.0 0.00 0.02 0.02 92 1019.0
20260831014106 76 320 0.0 0.0 0.00 0.02 0.02 92 1019.1
20260831013606 76 320 0.0 0.0 0.00 0.02 0.02 92 1019.1
20260831013105 76 320 0.0 0.0 0.00 0.02 0.02 92 1019.1
20260831012606 76 320 0.0 0.0 0.00 0.02 0.02 92 1019.1
20260831012105 76 320 0.0 0.0 0.00 0.02 0.02 92 1018.9
20260831011106 76 320 0.0 0.0 0.00 0.02 0.02 92 1018.9
20260831010605 76 320 0.0 0.0 0.00 0.02 0.02 92 1018.8
20260831010110 76 320 0.0 0.0 0.00 0.02 0.02 91 1018.8
20260831005605 76 320 0.0 0.0 0.00 0.02 0.02 91 1018.8
20260831005106 76 320 0.0 0.0 0.00 0.02 0.02 91 1018.7
20260831004606 76 320 0.0 0.0 0.00 0.02 0.02 91 1018.7
20260831004105 76 320 0.0 0.0 0.00 0.02 0.02 91 1018.7
20260831003605 76 320 0.0 0.0 0.00 0.02 0.02 91 1018.6
20260831003105 76 320 0.0 0.0 0.00 0.02 0.02 91 1018.5
20260831002605 76 320 0.0 0.0 0.00 0.02 0.02 91 1018.5
20260831001605 76 320 0.0 0.0 0.00 0.02 0.02 91 1018.4
20260831001105 77 320 0.0 0.0 0.00 0.02 0.02 91 1018.3
20260831000606 77 320 0.0 0.0 0.00 0.02 0.02 91 1018.3
20260831000109 77 320 0.0 0.0 0.00 0.02 0.02 91 1018.3
20260830235605 77 320 0.0 0.0 0.00 0.02 0.02 91 1018.2
20260830235106 77 320 0.0 0.0 0.00 0.02 0.02 91 1018.2
20260830234605 77 320 0.0 0.0 0.00 0.02 0.02 91 1018.3
20260830233606 77 322 0.0 1.0 0.00 0.02 0.02 91 1018.3
20260830233105 77 315 0.0 0.0 0.00 0.02 0.02 91 1018.3
20260830232606 78 312 0.0 1.0 0.00 0.02 0.02 90 1018.2
20260830232105 78 310 0.0 1.0 0.00 0.02 0.02 90 1018.2
20260830231605 78 319 0.0 0.0 0.00 0.02 0.02 90 1018.2
20260830231106 78 313 0.0 0.0 0.00 0.03 0.02 90 1018.1
20260830230606 78 311 0.0 0.0 0.00 0.04 0.02 90 1018.1
20260830230110 78 305 0.0 0.0 0.00 0.05 0.02 90 1018.2
20260830225605 79 280 0.0 0.0 0.00 0.07 0.02 89 1018.2
20260830225105 79 187 0.0 0.0 0.00 0.08 0.02 89 1018.1
20260830224606 79 152 0.0 0.0 0.00 0.09 0.02 89 1018.2
20260830224105 79 152 0.0 0.0 0.00 0.09 0.02 88 1018.2
20260830223605 79 152 0.0 0.0 0.00 0.09 0.02 88 1018.2
20260830223106 79 152 0.0 0.0 0.00 0.09 0.02 88 1018.2
20260830222605 79 152 0.0 0.0 0.00 0.09 0.02 88 1018.3
20260830222105 79 152 0.0 0.0 0.00 0.09 0.02 87 1018.3
20260830221105 80 149 0.0 1.0 0.00 0.10 0.02 87 1018.2
20260830220606 80 159 0.0 1.0 0.00 0.11 0.02 87 1018.3
20260830220110 80 167 0.0 1.0 0.00 0.11 0.02 87 1018.3
20260830215605 80 132 0.0 9.0 0.00 0.12 0.02 87 1018.1
20260830215105 80 163 0.0 5.0 0.01 0.23 0.02 87 1017.9
20260830214605 80 169 0.0 1.0 0.01 0.36 0.02 88 1017.7
20260830214105 80 188 0.0 1.0 0.01 0.52 0.02 88 1017.4
20260830213605 80 187 0.0 1.0 0.01 0.52 0.02 88 1017.4
20260830213105 80 167 0.0 1.0 0.01 0.52 0.02 88 1017.5
20260830212605 80 184 0.0 0.0 0.01 0.52 0.02 88 1017.5
20260830212105 80 153 0.0 5.0 0.01 0.52 0.02 87 1017.5
20260830211605 80 172 0.0 2.0 0.01 0.52 0.02 88 1017.3
20260830211105 81 71 0.0 1.0 0.01 0.52 0.02 87 1017.1
20260830210109 81 76 0.0 0.0 0.01 0.52 0.02 85 1017.3
20260830205605 82 104 0.0 2.0 0.01 0.52 0.02 83 1017.2
20260830205105 84 120 0.0 3.0 0.00 0.51 0.01 79 1017.3
20260830204605 85 86 1.0 3.0 0.00 0.51 0.01 79 1017.1
20260830204105 86 121 0.0 2.0 0.00 0.51 0.01 77 1016.8
20260830203104 90 72 0.0 1.0 0.00 0.51 0.01 72 1016.7
20260830202105 92 77 0.0 2.0 0.00 0.51 0.01 69 1016.4
20260830201605 92 87 0.0 3.0 0.00 0.51 0.01 70 1016.5
20260830201106 92 101 0.0 3.0 0.00 0.51 0.01 70 1016.6
20260830200606 92 28 0.0 2.0 0.00 0.51 0.01 73 1016.6
20260830200109 91 313 0.0 3.0 0.00 0.51 0.01 71 1016.6
20260830195605 91 30 1.0 5.0 0.00 0.51 0.01 70 1016.6
20260830195105 92 56 0.0 3.0 0.00 0.51 0.01 69 1016.7
20260830194605 92 44 0.0 1.0 0.00 0.51 0.01 69 1016.7
20260830193605 92 31 0.0 2.0 0.00 0.51 0.01 70 1017.0
20260830193105 92 10 0.0 1.0 0.00 0.51 0.01 70 1017.0
20260830192604 92 3 0.0 2.0 0.00 0.51 0.01 70 1017.1
20260830191605 92 44 0.0 1.0 0.00 0.51 0.01 70 1017.3
20260830191105 91 138 0.0 1.0 0.00 0.51 0.01 68 1017.3
20260830190605 91 130 0.0 1.0 0.00 0.51 0.01 69 1017.4
20260830190109 91 116 0.0 1.0 0.00 0.51 0.01 69 1017.6
20260830185105 91 152 0.0 2.0 0.00 0.51 0.01 70 1017.7
20260830184605 91 153 0.0 1.0 0.00 0.51 0.01 69 1017.7
20260830184105 90 144 0.0 0.0 0.00 0.51 0.01 73 1017.8
20260830183605 90 154 0.0 1.0 0.00 0.51 0.01 74 1017.9
20260830183106 90 156 0.0 2.0 0.00 0.51 0.01 72 1017.9
20260830182606 90 71 0.0 2.0 0.00 0.51 0.01 72 1018.0
20260830182107 90 49 0.0 1.0 0.00 0.51 0.01 76 1018.0
20260830181605 90 50 0.0 0.0 0.00 0.51 0.01 72 1018.0
20260830181105 90 50 0.0 1.0 0.00 0.51 0.01 72 1018.1
20260830180605 90 145 0.0 1.0 0.00 0.51 0.01 72 1018.1
20260830180108 89 161 0.0 3.0 0.00 0.51 0.01 76 1018.3
20260830175605 89 175 0.0 1.0 0.00 0.51 0.01 74 1018.4
20260830175105 89 133 0.0 0.0 0.00 0.51 0.01 74 1018.5
20260830174606 89 38 0.0 1.0 0.00 0.51 0.01 76 1018.6
20260830174104 89 111 0.0 0.0 0.00 0.51 0.01 75 1018.6
20260830173605 89 143 0.0 5.0 0.00 0.51 0.01 73 1018.7
20260830172105 89 178 0.0 0.0 0.00 0.51 0.01 74 1018.7
20260830171605 88 178 0.0 1.0 0.00 0.51 0.01 75 1018.9
20260830171105 88 163 0.0 1.0 0.00 0.51 0.01 76 1019.0
20260830170604 88 165 1.0 3.0 0.00 0.51 0.01 73 1019.1
20260830165605 88 159 0.0 3.0 0.00 0.51 0.01 76 1019.2
20260830165105 88 66 0.0 0.0 0.00 0.51 0.01 79 1019.2
20260830164605 88 47 0.0 1.0 0.00 0.51 0.01 77 1019.2
20260830164104 88 173 0.0 2.0 0.00 0.51 0.01 78 1019.2
20260830163605 88 25 0.0 2.0 0.00 0.51 0.01 79 1019.2
20260830163105 87 35 0.0 1.0 0.00 0.51 0.01 79 1019.3
20260830162605 87 96 0.0 0.0 0.00 0.51 0.01 80 1019.4
20260830162105 87 177 0.0 1.0 0.00 0.51 0.01 79 1019.4
20260830161604 87 81 0.0 0.0 0.00 0.51 0.01 80 1019.4
20260830161105 86 104 0.0 0.0 0.00 0.51 0.01 80 1019.6
20260830160604 86 111 0.0 0.0 0.00 0.51 0.01 81 1019.6
20260830160109 86 110 0.0 0.0 0.00 0.51 0.01 80 1019.8
20260830154605 86 137 0.0 0.0 0.00 0.51 0.01 82 1019.9
20260830154104 86 158 0.0 1.0 0.00 0.51 0.01 82 1019.8
20260830153605 85 155 0.0 0.0 0.00 0.51 0.01 82 1019.9
20260830152604 86 133 0.0 0.0 0.00 0.51 0.01 83 1020.0
20260830151604 85 38 0.0 0.0 0.00 0.51 0.01 85 1020.0
20260830150605 85 129 0.0 1.0 0.00 0.51 0.01 81 1020.1
20260830150109 85 122 0.0 0.0 0.00 0.51 0.01 85 1020.1
20260830145105 84 103 0.0 0.0 0.00 0.51 0.01 87 1020.2
20260830143605 83 161 0.0 1.0 0.00 0.51 0.01 89 1020.1
20260830143105 82 169 0.0 2.0 0.00 0.51 0.01 89 1020.2
20260830142604 82 154 1.0 3.0 0.00 0.51 0.01 88 1020.1
20260830142104 82 169 0.0 6.0 0.00 0.51 0.01 90 1020.0
20260830140604 80 227 2.0 3.0 0.00 0.51 0.01 94 1020.1
20260830140109 80 308 1.0 3.0 0.00 0.51 0.01 95 1020.1
20260830135604 79 307 1.0 2.0 0.00 0.51 0.01 96 1020.0
20260830135105 78 307 1.0 3.0 0.00 0.51 0.01 96 1020.0
20260830134604 78 346 1.0 3.0 0.00 0.51 0.01 95 1020.1
20260830134104 78 318 0.0 5.0 0.00 0.51 0.01 96 1020.1
20260830133605 77 345 1.0 3.0 0.00 0.51 0.01 96 1020.1
20260830133104 77 302 1.0 3.0 0.00 0.51 0.01 95 1020.1
20260830132604 77 32 1.0 3.0 0.00 0.51 0.01 96 1020.2
20260830132105 77 33 1.0 3.0 0.00 0.51 0.01 96 1020.2
20260830131104 76 38 1.0 3.0 0.00 0.51 0.01 96 1020.1
20260830130604 76 39 0.0 3.0 0.00 0.51 0.01 96 1020.0
20260830130108 76 35 1.0 5.0 0.00 0.51 0.01 96 1020.0
20260830125605 76 274 0.0 0.0 0.00 0.51 0.01 96 1020.1
20260830124604 75 274 0.0 0.0 0.00 0.51 0.01 96 1020.1
20260830124104 75 274 0.0 0.0 0.00 0.51 0.01 96 1020.0
20260830123605 75 251 0.0 0.0 0.00 0.51 0.01 96 1019.9
20260830123104 74 301 0.0 0.0 0.00 0.51 0.01 96 1019.8
20260830122604 74 301 0.0 0.0 0.00 0.51 0.01 95 1019.8
20260830122104 74 301 0.0 0.0 0.00 0.51 0.01 96 1019.8
20260830121605 74 301 0.0 0.0 0.00 0.51 0.01 95 1019.6
20260830121105 73 301 0.0 0.0 0.00 0.51 0.01 95 1019.6
20260830120604 73 301 0.0 0.0 0.00 0.51 0.01 95 1019.5
20260830120108 73 301 0.0 0.0 0.00 0.51 0.01 95 1019.4
20260830115104 72 301 0.0 0.0 0.00 0.51 0.01 95 1019.2
20260830114604 72 301 0.0 0.0 0.00 0.51 0.01 95 1019.2
20260830114105 72 301 0.0 0.0 0.00 0.51 0.01 95 1019.1
20260830113604 72 301 0.0 0.0 0.00 0.51 0.01 95 1019.1
20260830113104 72 301 0.0 0.0 0.00 0.51 0.01 95 1019.1
20260830112605 72 301 0.0 0.0 0.00 0.51 0.01 95 1019.0
20260830112105 72 301 0.0 0.0 0.00 0.51 0.01 95 1019.0
20260830111604 72 302 0.0 0.0 0.00 0.51 0.01 95 1018.9
20260830111105 72 302 0.0 0.0 0.00 0.51 0.01 95 1018.9
20260830110604 72 302 0.0 0.0 0.00 0.51 0.01 95 1018.8
20260830110108 72 302 0.0 0.0 0.00 0.51 0.01 95 1018.8
20260830105604 72 302 0.0 0.0 0.00 0.51 0.01 95 1018.8
20260830103604 72 302 0.0 0.0 0.00 0.51 0.01 95 1018.5
20260830103105 72 302 0.0 0.0 0.00 0.51 0.01 95 1018.4
20260830102104 72 302 0.0 0.0 0.00 0.51 0.01 95 1018.2
20260830101604 72 302 0.0 0.0 0.00 0.51 0.01 95 1018.2
20260830101104 72 302 0.0 0.0 0.00 0.51 0.01 95 1018.2
20260830100604 72 302 0.0 0.0 0.00 0.51 0.01 95 1018.2
20260830100108 72 302 0.0 0.0 0.00 0.51 0.01 95 1018.1
20260830095105 72 302 0.0 0.0 0.00 0.51 0.01 95 1017.9
20260830094604 72 302 0.0 0.0 0.00 0.51 0.01 95 1018.0
20260830094104 72 302 0.0 0.0 0.00 0.51 0.01 95 1017.9
20260830093604 72 302 0.0 0.0 0.00 0.51 0.01 95 1017.9
20260830093104 73 302 0.0 0.0 0.00 0.51 0.01 95 1017.9
20260830092604 73 302 0.0 0.0 0.00 0.51 0.01 95 1017.9
20260830092104 73 302 0.0 0.0 0.00 0.51 0.01 95 1017.9
20260830091604 73 302 0.0 0.0 0.00 0.51 0.01 95 1017.9
20260830091104 73 302 0.0 0.0 0.00 0.51 0.01 95 1017.9
20260830090108 73 302 0.0 0.0 0.00 0.51 0.01 95 1018.1
20260830085604 73 302 0.0 0.0 0.00 0.51 0.01 95 1018.1
20260830085104 73 302 0.0 0.0 0.00 0.51 0.01 95 1018.1
20260830084604 73 302 0.0 0.0 0.00 0.51 0.01 95 1018.1
20260830084104 73 302 0.0 0.0 0.00 0.51 0.01 95 1018.2
20260830083604 73 302 0.0 0.0 0.00 0.51 0.01 95 1018.2
20260830083104 73 302 0.0 0.0 0.00 0.51 0.01 95 1018.1
20260830082604 73 302 0.0 0.0 0.00 0.51 0.01 95 1018.2
20260830081604 73 302 0.0 0.0 0.00 0.51 0.01 95 1018.2
20260830081104 73 302 0.0 0.0 0.00 0.51 0.01 95 1018.2
20260830080603 73 302 0.0 0.0 0.00 0.51 0.01 95 1018.2
20260830080108 73 302 0.0 0.0 0.00 0.51 0.01 95 1018.2
20260830075105 73 302 0.0 0.0 0.00 0.51 0.01 95 1018.3
20260830074103 73 302 0.0 0.0 0.00 0.51 0.01 95 1018.5
20260830073104 73 302 0.0 0.0 0.00 0.51 0.01 95 1018.5
20260830072604 73 302 0.0 0.0 0.00 0.51 0.01 95 1018.5
20260830072104 73 302 0.0 0.0 0.00 0.51 0.01 95 1018.5
20260830071604 73 302 0.0 0.0 0.01 0.51 0.01 95 1018.6
20260830071104 73 302 0.0 0.0 0.01 0.51 0.01 95 1018.6
20260830070604 73 302 0.0 0.0 0.01 0.51 0.01 95 1018.7
20260830070108 73 302 0.0 0.0 0.01 0.51 0.01 95 1018.8
20260830065604 73 302 0.0 0.0 0.01 0.51 0.01 95 1018.8
20260830065103 73 302 0.0 0.0 0.01 0.51 0.01 95 1018.8
20260830064104 73 302 0.0 0.0 0.01 0.51 0.01 95 1018.8
20260830063604 73 302 0.0 0.0 0.01 0.51 0.01 95 1018.7
20260830062104 73 302 0.0 0.0 0.01 0.51 0.01 95 1018.8
20260830061604 73 302 0.0 0.0 0.00 0.50 0.00 95 1018.8
20260830061104 73 302 0.0 0.0 0.00 0.50 0.00 95 1018.7
20260830060604 73 302 0.0 0.0 0.00 0.50 0.00 95 1018.7
20260830060108 73 302 0.0 0.0 0.00 0.50 0.00 95 1018.9
20260830055103 73 302 0.0 0.0 0.00 0.50 0.00 95 1018.9
20260830054105 73 302 0.0 0.0 0.00 0.50 0.00 95 1019.0
20260830053603 73 302 0.0 0.0 0.00 0.50 0.00 95 1019.0
20260830053104 73 302 0.0 0.0 0.00 0.50 0.00 95 1019.1